Location: Alulod
(14.2076°N, 120.8898°E)
Time: 03:23:06
(UTC+00:00)

Meteor 1-20 Rocket - Pass Details

Date: 13 December 2025
Orbit: 818 x 890 km, 81.2° (Epoch: 15 January)

Event Time Altitude Azimuth Distance (km) Brightness Sun altitude
Rises 21:44:27 0° 186° (S) 3,461 7.6 -7.0°
Reaches altitude 10° 21:46:54 10° 186° (S) 2,515 6.9 -6.5°
Maximum altitude 21:52:37 87° 272° (W) 865 4.3 -5.2°
Drops below altitude 10° 21:58:15 10° 5° (N) 2,468 6.5 -3.9°
Sets 22:00:38 0° 5° (N) 3,393 7.2 -3.4°
